This is the latest recevied weather packets stored in our database for station/object AE0NK. If no packets are shown the sender has not sent any weather packets the latest 10 day(s).
| Time | Temp. | Humidity | Pressure | Rain* | Wind** | Luminosity | Snow |
|---|---|---|---|---|---|---|---|
| 1777499907 | 15° C | 30% | 1016.6 hPa | 0 mm | - | 348 W/m² | - |
| 1777499604 | 15° C | 29% | 1016.7 hPa | 0 mm | - | 563 W/m² | - |
| 1777499304 | 15° C | 31% | 1016.7 hPa | 0 mm | - | 570 W/m² | - |
| 1777499003 | 15° C | 30% | 1016.7 hPa | 0 mm | - | 608 W/m² | - |
| 1777498701 | 15° C | 30% | 1016.6 hPa | 0 mm | - | 606 W/m² | - |
| 1777498399 | 15° C | 29% | 1016.5 hPa | 0 mm | - | 610 W/m² | - |
| 1777498097 | 15° C | 28% | 1016.7 hPa | 0 mm | - | 622 W/m² | - |
| 1777497796 | 15° C | 29% | 1016.6 hPa | 0 mm | - | 642 W/m² | - |
| 1777497492 | 15° C | 28% | 1016.6 hPa | 0 mm | - | 652 W/m² | - |
| 1777497211 | 15° C | 28% | 1016.6 hPa | 0 mm | - | 661 W/m² | - |
| 1777496908 | 15° C | 29% | 1016.9 hPa | 0 mm | - | 679 W/m² | - |
| 1777496606 | 15° C | 28% | 1016.8 hPa | 0 mm | - | 691 W/m² | - |
| 1777496301 | 15° C | 29% | 1016.8 hPa | 0 mm | - | 703 W/m² | - |
| 1777495998 | 15° C | 28% | 1016.8 hPa | 0 mm | - | 714 W/m² | - |
| 1777495717 | 15° C | 28% | 1016.9 hPa | 0 mm | - | 726 W/m² | - |
| 1777495409 | 14.44° C | 27% | 1016.9 hPa | 0 mm | - | 738 W/m² | - |
| 1777495107 | 15° C | 32% | 1016.9 hPa | 0 mm | - | 745 W/m² | - |
| 1777494805 | 15° C | 29% | 1017.1 hPa | 0 mm | - | 779 W/m² | - |
| 1777494502 | 15° C | 31% | 1017 hPa | 0 mm | - | 768 W/m² | - |
| 1777494201 | 15° C | 29% | 1017.1 hPa | 0 mm | - | 782 W/m² | - |
| 1777493899 | 15° C | 30% | 1017.1 hPa | 0 mm | - | 791 W/m² | - |
| 1777493599 | 15° C | 33% | 1017.1 hPa | 0 mm | - | 796 W/m² | - |
| 1777493297 | 15.56° C | 32% | 1017.2 hPa | 0 mm | - | 810 W/m² | - |
| 1777492995 | 15.56° C | 31% | 1017.1 hPa | 0 mm | - | 810 W/m² | - |
| 1777492710 | 15° C | 33% | 1017.3 hPa | 0 mm | - | 819 W/m² | - |
* Rain latest hour (hover to see other rain measurements)
** Current wind speed in m/s (hover to see current wind gust speed)